Pueblo, CO

3:06 AM MDT on June 28, 2017 (GMT -0600)
Pueblo Memorial

Weather History for KPUB - November, 2012

Change the Weather History Date:

Thursday, November 1, 2012

  Actual Average Record
Temperature  
Mean Temperature 52 °F 46 °F  
Max Temperature 76 °F 63 °F 81 °F (2015)
Min Temperature 28 °F 28 °F 8 °F (1991)
Degree Days  
Heating Degree Days 13 19  
Month to date heating degree days 13 19  
Since 1 July heating degree days 503 529  
Cooling Degree Days 0 0  
Month to date cooling degree days 0 0  
Year to date cooling degree days 1322 897  
Growing Degree Days 2 (Base 50)    
Moisture  
Dew Point 20 °F    
Average Humidity 36    
Maximum Humidity 63    
Minimum Humidity 9    
Precipitation  
Precipitation 0.00 in 0.02 in 0.94 in (1892)
Month to date precipitation 0.00 0.02  
Year to date precipitation 4.70 11.74  
Snow  
Snow 0.00 in 0.10 in 4.90 in (1972)
Month to date snowfall 0.0 0.1  
Since 1 July snowfall 1.6 1.7  
Since 1 September snowfall 1.6 1.7  
Snow Depth 0.00 in    
Sea Level Pressure  
Sea Level Pressure 29.95 in    
Wind  
Wind Speed 5 mph (West)    
Max Wind Speed 13 mph    
Max Gust Speed 15 mph    
Visibility 10 miles    
Events      
T = Trace of Precipitation, MM = Missing Value Source: NWS Daily Summary

Daily Weather History Graph

Daily Weather History Graph

Search for Another Location

Airport or City:

Trip Planner

Search our weather history database for the weather conditions in past years. The results will help you decide how hot, cold, wet, or windy it might be!

Date:

Astronomy

Nov. 01, 2012 Rise Set
Actual Time 7:24 AM MDT 5:57 PM MDT
Civil Twilight 6:57 AM MDT 6:25 PM MDT
Nautical Twilight 6:26 AM MDT 6:56 PM MDT
Astronomical Twilight 5:55 AM MDT 7:27 PM MDT
Moon 7:58 PM MDT (11/1) 9:57 AM MDT (11/1)
Length of Visible Light 11h 27m
Length of Day
10h 33m
Waning Gibbous, 92% of the Moon is Illuminated
Nov 1
Waning Gibbous
Nov 6
Last Quarter
Nov 13
New
Nov 20
First Quarter
Nov 28
Full

Hourly Weather History & Observations

Time (MDT) Temp. Windchill Dew Point Humidity Pressure Visibility Wind Dir Wind Speed Gust Speed Precip Events Conditions
12:53 AM 41.0 °F 38.0 °F 26.1 °F 55% 30.07 in 10.0 mi WSW 4.6 mph - N/A   Clear
1:53 AM 36.0 °F 33.3 °F 19.9 °F 52% 30.06 in 10.0 mi North 3.5 mph - N/A   Clear
2:53 AM 39.2 °F 37.0 °F 24.8 °F 56% 30.14 in 10.0 mi SW 3.5 mph - N/A   Clear
3:53 AM 32.0 °F 26.4 °F 19.0 °F 59% 30.04 in 10.0 mi WNW 5.8 mph - N/A   Clear
4:53 AM 37.4 °F 32.8 °F 23.0 °F 56% 30.12 in 10.0 mi West 5.8 mph - N/A   Clear
5:53 AM 33.8 °F - 21.2 °F 60% 30.10 in 10.0 mi Calm Calm - N/A   Clear
6:53 AM 28.0 °F 24.2 °F 18.0 °F 66% 30.08 in 10.0 mi West 3.5 mph - N/A   Clear
7:53 AM 32.0 °F 28.7 °F 21.2 °F 64% 30.09 in 4.0 mi West 3.5 mph - N/A   Haze
7:57 AM 33.8 °F 30.8 °F 21.2 °F 60% 30.09 in 10.0 mi West 3.5 mph - N/A   Clear
8:53 AM 43.0 °F 38.8 °F 25.0 °F 49% 30.04 in 10.0 mi West 6.9 mph - N/A   Clear
9:53 AM 48.9 °F - 24.1 °F 38% 30.02 in 10.0 mi West 6.9 mph - N/A   Clear
10:53 AM 57.9 °F - 23.0 °F 26% 29.99 in 10.0 mi West 5.8 mph - N/A   Clear
11:53 AM 63.0 °F - 21.9 °F 21% 29.94 in 10.0 mi SSW 3.5 mph - N/A   Clear
12:53 PM 68.0 °F - 21.0 °F 17% 29.89 in 10.0 mi Variable 3.5 mph - N/A   Clear
1:53 PM 73.0 °F - 18.0 °F 12% 29.85 in 10.0 mi SE 4.6 mph - N/A   Clear
2:53 PM 75.0 °F - 12.9 °F 9% 29.80 in 10.0 mi SSE 6.9 mph - N/A   Clear
3:53 PM 75.0 °F - 16.0 °F 11% 29.81 in 10.0 mi SSE 11.5 mph - N/A   Clear
4:53 PM 73.0 °F - 15.1 °F 11% 29.79 in 10.0 mi SSE 11.5 mph - N/A   Clear
5:53 PM 66.9 °F - 19.0 °F 16% 29.81 in 10.0 mi SE 5.8 mph - N/A   Clear
6:53 PM 57.0 °F - 19.0 °F 23% 29.88 in 10.0 mi ENE 6.9 mph - N/A   Clear
7:53 PM 54.0 °F - 18.0 °F 24% 29.89 in 10.0 mi North 11.5 mph - N/A   Clear
8:53 PM 46.9 °F - 18.0 °F 32% 29.88 in 10.0 mi NW 4.6 mph - N/A   Clear
9:53 PM 50.0 °F - 19.0 °F 29% 29.86 in 10.0 mi North 4.6 mph - N/A   Clear
10:53 PM 46.9 °F - 18.0 °F 32% 29.84 in 10.0 mi Calm Calm - N/A   Clear
11:53 PM 44.1 °F - 19.0 °F 37% 29.84 in 10.0 mi Calm Calm - N/A   Clear